TimeMST,TemperatureF,Dew PointF,Humidity,Sea Level PressureIn,VisibilityMPH,Wind Direction,Wind SpeedMPH,Gust SpeedMPH,PrecipitationIn,Events,Conditions,WindDirDegrees,DateUTC
12:53 AM,33.1,27.0,78,30.04,10.0,NW,11.5,-,N/A,,Overcast,310,2013-02-14 07:53:00
1:53 AM,30.9,25.0,79,30.03,10.0,NW,8.1,-,N/A,,Clear,320,2013-02-14 08:53:00
2:53 AM,32.0,25.0,75,30.03,10.0,West,9.2,-,N/A,,Clear,260,2013-02-14 09:53:00
3:53 AM,30.0,25.0,82,30.04,10.0,WNW,6.9,-,N/A,,Partly Cloudy,290,2013-02-14 10:53:00
4:53 AM,30.9,25.0,79,30.05,10.0,NW,9.2,-,N/A,,Partly Cloudy,310,2013-02-14 11:53:00
5:53 AM,32.0,26.1,79,30.07,10.0,NW,12.7,-,N/A,,Overcast,320,2013-02-14 12:53:00
6:53 AM,33.1,27.0,78,30.10,10.0,NW,9.2,-,N/A,,Overcast,320,2013-02-14 13:53:00
7:53 AM,34.0,27.0,75,30.13,10.0,WNW,9.2,-,N/A,,Overcast,300,2013-02-14 14:53:00
8:53 AM,37.0,28.0,70,30.14,10.0,NW,10.4,-,N/A,,Mostly Cloudy,320,2013-02-14 15:53:00
9:53 AM,37.0,27.0,67,30.17,10.0,NW,19.6,24.2,N/A,,Mostly Cloudy,320,2013-02-14 16:53:00
10:53 AM,37.0,25.0,62,30.21,10.0,NNW,15.0,20.7,N/A,,Overcast,330,2013-02-14 17:53:00
11:53 AM,37.0,21.0,52,30.23,10.0,NNW,24.2,29.9,N/A,,Overcast,340,2013-02-14 18:53:00
12:53 PM,36.0,19.9,52,30.23,10.0,NNW,26.5,34.5,N/A,,Overcast,330,2013-02-14 19:53:00
1:53 PM,35.1,19.0,52,30.25,10.0,NNW,20.7,29.9,N/A,,Scattered Clouds,330,2013-02-14 20:53:00
2:53 PM,36.0,18.0,48,30.27,10.0,NNW,17.3,24.2,N/A,,Mostly Cloudy,330,2013-02-14 21:53:00
3:53 PM,36.0,17.1,46,30.29,10.0,NNW,20.7,25.3,N/A,,Mostly Cloudy,330,2013-02-14 22:53:00
4:53 PM,32.0,19.0,59,30.32,10.0,North,12.7,-,N/A,,Mostly Cloudy,360,2013-02-14 23:53:00
5:53 PM,30.0,19.0,64,30.34,10.0,North,10.4,-,N/A,,Partly Cloudy,360,2013-02-15 00:53:00
6:53 PM,26.1,19.0,75,30.37,10.0,North,8.1,-,N/A,,Clear,350,2013-02-15 01:53:00
7:53 PM,21.9,18.0,85,30.39,10.0,NNW,6.9,-,N/A,,Scattered Clouds,340,2013-02-15 02:53:00
8:53 PM,19.9,17.1,89,30.38,10.0,North,8.1,-,N/A,,Clear,360,2013-02-15 03:53:00
9:53 PM,19.9,17.1,89,30.38,10.0,North,9.2,-,N/A,,Clear,350,2013-02-15 04:53:00
10:53 PM,19.9,16.0,85,30.39,10.0,WNW,4.6,-,N/A,,Clear,300,2013-02-15 05:53:00
11:53 PM,19.0,15.1,85,30.41,10.0,West,6.9,-,N/A,,Clear,280,2013-02-15 06:53:00